Weather History for Dover AFB, DE

Change the Weather History Date:

Sunday, August 11, 2013

  Actual Average Record
Temperature  
Mean Temperature 72 °F -  
Max Temperature 79 °F 87 °F 98 °F (1949)
Min Temperature 65 °F 67 °F 51 °F (1972)
Cooling Degree Days 7    
Growing Degree Days 22 (Base 50)    
Moisture  
Dew Point 68 °F    
Average Humidity 83    
Maximum Humidity 99    
Minimum Humidity 65    
Precipitation  
Precipitation 0.00 in - - ()
Sea Level Pressure  
Sea Level Pressure 30.08 in    
Wind  
Wind Speed 5 mph (ESE)    
Max Wind Speed 10 mph    
Max Gust Speed -    
Visibility 10 miles    
Events      
Averages and records for this station are not official NWS values.
T = Trace of Precipitation, MM = Missing Value Source: NWS Daily Summary

Daily Weather History Graph

Daily Weather History Graph

Search for Another Location

Airport:

Trip Planner

Search our weather history database for the weather conditions in past years. The results will help you decide how hot, cold, wet, or windy it might be!

Date:

Astronomy

Aug. 11, 2013 Rise Set
Actual Time 6:11 AM EDT 8:01 PM EDT
Civil Twilight 5:42 AM EDT 8:30 PM EDT
Nautical Twilight 5:07 AM EDT 9:05 PM EDT
Astronomical Twilight 4:29 AM EDT 9:43 PM EDT
Moon 10:54 AM EDT (8/11) 10:18 PM EDT (8/11)
Length of Visible Light 14h 47m
Length of Day
13h 50m
Waxing Crescent, 22% of the Moon is Illuminated
Aug 11
Waxing Crescent
Aug 14
First Quarter
Aug 20
Full
Aug 28
Last Quarter
Sep 5
New

Hourly Weather History & Observations

Time (EDT) Temp. Dew Point Humidity Pressure Visibility Wind Dir Wind Speed Gust Speed Precip Events Conditions
12:58 AM 70.2 °F 65.1 °F 84% 30.06 in 10.0 mi WSW 3.5 mph - N/A   Clear
1:58 AM 68.7 °F 65.1 °F 88% 30.06 in 10.0 mi WSW 4.6 mph - N/A   Clear
2:58 AM 68.7 °F 64.9 °F 88% 30.06 in 10.0 mi West 4.6 mph - N/A   Clear
3:58 AM 68.9 °F 64.2 °F 85% 30.06 in 10.0 mi West 5.8 mph - N/A   Clear
4:58 AM 66.4 °F 64.6 °F 94% 30.08 in 10.0 mi NW 3.5 mph - N/A   Clear
5:58 AM 65.7 °F 65.5 °F 99% 30.09 in 10.0 mi NNW 2.3 mph - N/A   Partly Cloudy
6:58 AM 69.1 °F 67.8 °F 96% 30.10 in 10.0 mi Variable 2.3 mph - N/A   Overcast
7:58 AM 73.0 °F 69.3 °F 88% 30.10 in 10.0 mi NE 8.1 mph - N/A   Mostly Cloudy
8:58 AM 73.9 °F 66.6 °F 78% 30.12 in 10.0 mi NE 9.2 mph - N/A   Scattered Clouds
9:58 AM 73.8 °F 63.7 °F 71% 30.12 in 10.0 mi ENE 5.8 mph - N/A   Scattered Clouds
10:58 AM 76.3 °F 64.6 °F 67% 30.12 in 10.0 mi East 6.9 mph - N/A   Clear
11:58 AM 78.3 °F 67.3 °F 69% 30.12 in 10.0 mi ESE 6.9 mph - N/A   Partly Cloudy
11:59 AM 78.8 °F 66.2 °F 65% 30.11 in 10.0 mi SE 5.8 mph - N/A   Light Drizzle
12:02 PM 78.8 °F 66.2 °F 65% 30.10 in 10.0 mi ESE 9.2 mph - N/A   Partly Cloudy
12:58 PM 79.3 °F 68.2 °F 69% 30.10 in 10.0 mi ESE 10.4 mph - 0.00 in   Clear
1:58 PM 78.6 °F 67.3 °F 68% 30.09 in 10.0 mi ESE 10.4 mph - N/A   Mostly Cloudy
2:58 PM 78.3 °F 67.5 °F 69% 30.09 in 10.0 mi ESE 8.1 mph - N/A   Mostly Cloudy
3:58 PM 77.7 °F 70.0 °F 77% 30.07 in 10.0 mi ESE 8.1 mph - N/A   Mostly Cloudy
4:58 PM 77.9 °F 71.4 °F 80% 30.06 in 10.0 mi ESE 8.1 mph - N/A   Scattered Clouds
5:58 PM 77.0 °F 71.8 °F 84% 30.05 in 10.0 mi SE 8.1 mph - N/A   Partly Cloudy
6:58 PM 76.3 °F 71.4 °F 85% 30.04 in 10.0 mi ESE 4.6 mph - N/A   Partly Cloudy
7:58 PM 74.1 °F 71.8 °F 92% 30.04 in 10.0 mi ESE 3.5 mph - N/A   Clear
8:58 PM 72.3 °F 72.0 °F 99% 30.04 in 10.0 mi SE 6.9 mph - N/A   Clear
9:58 PM 72.0 °F 71.6 °F 99% 30.06 in 10.0 mi SSE 3.5 mph - N/A   Clear
10:58 PM 71.2 °F 70.9 °F 99% 30.05 in 10.0 mi SE 1.2 mph - N/A   Clear
11:58 PM 70.3 °F 70.2 °F 99% 30.05 in 10.0 mi SE 3.5 mph - N/A   Clear